Estación de Petorca

Ultimos registro cada 15 minutos 35
Estación Fecha / Hora Temperatura Humedad Lluvia Velocidad Dirección Radiación Presion
35 Petorca 05-05-2026 08:30 10,3 62,8 0 0 32 180,6 982,9
34 Petorca 05-05-2026 08:15 8,5 69,7 0 0 31 50,6 983
33 Petorca 05-05-2026 08:00 7,6 71 0 0 20 36,9 983
32 Petorca 05-05-2026 07:45 7,4 73 0 0 38 11,9 983,1
31 Petorca 05-05-2026 07:30 6,9 72,3 0 0 28 3,1 983
30 Petorca 05-05-2026 07:15 7,7 71,1 0 0 56 0,6 982,7
29 Petorca 05-05-2026 07:00 7,8 71,4 0 0 34 0,6 982,9
28 Petorca 05-05-2026 06:45 7,6 71,2 0 0 340 0,6 982,8
27 Petorca 05-05-2026 06:30 7,9 68,8 0 0 143 0,6 982,6
26 Petorca 05-05-2026 06:15 8,2 70 0 0 39 0,6 982,6
25 Petorca 05-05-2026 06:00 6,6 74 0 0 21 0,6 982,6
24 Petorca 05-05-2026 05:45 6,7 73,4 0 0 18 0,6 982,6
23 Petorca 05-05-2026 05:30 7,3 73,5 0 0 303 0,6 982,5
22 Petorca 05-05-2026 05:15 7,5 72,1 0 0 105 0,6 982,5
21 Petorca 05-05-2026 05:00 6,9 71,1 0 0 25 0,6 982,3
20 Petorca 05-05-2026 04:45 6,6 75,3 0 0 358 0,6 982,2
19 Petorca 05-05-2026 04:30 6,5 70,9 0 0 345 0,6 982,2
18 Petorca 05-05-2026 04:15 7,3 72 0 0 323 0,6 982
17 Petorca 05-05-2026 04:00 7,2 67,3 0 0 25 0,6 982,1
16 Petorca 05-05-2026 03:45 7,5 66,1 0 0 17 0,6 982
15 Petorca 05-05-2026 03:30 7,4 66,7 0 0 27 0,6 982
14 Petorca 05-05-2026 03:15 7,3 68,3 0 0 17 0,6 982
13 Petorca 05-05-2026 03:00 7,1 70,9 0 0 15 0,6 982,3
12 Petorca 05-05-2026 02:45 7,6 71,7 0 0 29 0,6 982,6
11 Petorca 05-05-2026 02:30 7,9 69,5 0 0 13 0,6 982,7
10 Petorca 05-05-2026 02:15 7,5 69,8 0 0 28 0,6 982,9
9 Petorca 05-05-2026 02:00 8,8 65,8 0 0 39 0,6 982,9
8 Petorca 05-05-2026 01:45 8,8 66,2 0 0 321 0,6 983,2
7 Petorca 05-05-2026 01:30 9,5 63 0 0 324 0,6 983,1
6 Petorca 05-05-2026 01:15 10,1 60,9 0 0 8 0,6 983,3
5 Petorca 05-05-2026 01:00 10,2 60,3 0 0 38 0,6 983,2
4 Petorca 05-05-2026 00:45 9,8 63,8 0 0 27 0,6 983,2
3 Petorca 05-05-2026 00:30 9,5 66,1 0 0 345 0,6 983,3
2 Petorca 05-05-2026 00:15 10,3 65,3 0 0 337 0,6 983,5
1 Petorca 05-05-2026 00:00 11,1 58,2 0 0 14 0,6 983,4